Back to catalog

SITRO-AIS-14

AliveCommunicationsSSO
NORAD 61752·PAYLOAD·🇷🇺 Russia
This satellite name has not been confirmed by official sources yet.

Launched Nov 4, 2024 from Vostochny Cosmodrome

Loading…

Next Passes (next 24 hours)

TLE

FreshSource: Space-Track

Epoch: Sep 14, 2026, 13:42 UTC

1 61752U 24199T   26257.57130397  .00002098  00000-0  18194-3 0  9998
2 61752  97.3206  91.4244 0007822 114.2595 245.9446 14.98045597148504

Track SITRO-AIS-14 in real time with AllMySat

Download on the App Store